AirNav   Everest Fuels
 
 416 users online  

28WI Rutherford Airport
Arkansaw, Wisconsin, USA

GOING TO ARKANSAW?


FAA INFORMATION EFFECTIVE 16 JULY 2020

Location

FAA Identifier: 28WI
Lat/Long: 44-36-14.8780N 092-02-47.6200W
44-36.247967N 092-02.793667W
44.6041328,-92.0465611
(estimated)
Elevation: 790 ft. / 241 m (estimated)
Variation: 02E (1985)
From city: 2 miles SW of ARKANSAW, WI
Time zone: UTC -5 (UTC -6 during Standard Time)
Zip code: 54721

Airport Operations

Airport use: Private use. Permission required prior to landing
Activation date: 03/1979
Control tower: no
ARTCC: MINNEAPOLIS CENTER
FSS: GREEN BAY FLIGHT SERVICE STATION
Attendance: CONTINUOUS
Wind indicator: yes
Segmented circle: no

Airport Communications

WX AWOS-3 at RGK (19 nm W): 119.25 (715-594-3763)
WX AWOS-3 at LUM (19 nm NE): 118.025 (715-235-5342)
  • FREQ 122.9 AVBL FOR COMMUNICATIONS WITH THE ARPT.

Nearby radio navigation aids

VOR radial/distance  VOR name  Freq  Var
EAUr230/29.9EAU CLAIRE VORTAC113.6504E

Airport Services

Runway Information

Runway 9/27

Dimensions: 3000 x 60 ft. / 914 x 18 m
Surface: turf
RUNWAY 9  RUNWAY 27
Traffic pattern: leftleft
Obstructions: pline, markedhill, 1200 ft. from runway

Airport Ownership and Management from official FAA records

Ownership: Privately-owned
Owner: NORTHERN TRAILS AVIATION
2422 27 AND 1/2 STREET
RICE LAKE, WI 54868
Phone 715-296-4018
Manager: THOM RUTHERFORD
2422 27 AND 1/2 STREET
RICE LAKE, WI 54868
Phone 715-296-4018

Airport Operational Statistics

Aircraft based on the field: 3
Single engine airplanes: 3
    

Additional Remarks

CALL FIRST
FOR CD CTC MINNEAPOLIS ARTCC AT 651-463-5588.

Instrument Procedures

There are no published instrument procedures at 28WI.

Some nearby airports with instrument procedures:

KRGK - Red Wing Regional Airport (19 nm W)
KLUM - Menomonie Municipal Airport-Score Field (19 nm NE)
3T3 - Boyceville Municipal Airport (26 nm N)
KEAU - Chippewa Valley Regional Airport (29 nm NE)
KONA - Winona Municipal Airport-Max Conrad Field (35 nm SE)
 
Loc | Ops | Rwys | IFR | FBO | Links
Com | Nav | Svcs | Stats | Notes
Area around 28WI (Rutherford Airport)
 
Road maps at: MapQuest Bing Google
 
Aerial photo
No photo
 
Sectional chart

 
Airport distance calculator
Flying to Rutherford Airport? Find the distance to fly.

From to 28WI

Sunrise and sunset
Times for 10-Aug-2020
 Local
(UTC-5)
 Zulu
(UTC)
Morning civil twilight05:3510:35
Sunrise06:0711:07
Sunset20:2001:20
Evening civil twilight20:5201:52

Current date and time
Zulu (UTC)  10-Aug-2020 09:48:19
Local (UTC-5)  10-Aug-2020 04:48:19
 
METAR
KRGK 
18nm W 
100935Z AUTO 18006KT 7SM VCTSRA SCT034 SCT048 BKN090 23/19 A2982 RMK AO2 LTG DSNT S THRU NW
KLUM 
19nm NE 
100935Z AUTO 18012KT 10SM -RA SCT090 OVC110 22/20 A2984 RMK AO2 LTG DSNT SW T02150204
KEAU 
29nm NE 
100856Z AUTO 16012KT 10SM -RA FEW080 BKN110 23/21 A2980 RMK AO2 RAB32 PRESFR SLP082 P0001 60001 T02330211 58018
KONA 
36nm SE 
100935Z AUTO 00000KT 10SM CLR 22/22 A2986 RMK AO2
TAF
NOTAMs
Click for the latest NOTAMs
NOTAMs are issued by the DoD/FAA and will open in a separate window not controlled by AirNav.

 

 
 

Would you like to see your business listed on this page?

 If your business provides an interesting product or service to pilots, flight crews, aircraft, or users of the Rutherford Airport, you should consider listing it here.  To start the listing process, click on the button below
 
Add a business
 

Other Pages about Rutherford Airport

Update a link
 
Copyright © AirNav, LLC. All rights reserved. Privacy Policy  Contact